Year,Month,Day,Hour,Minute,Value (Times are PST for temperature in C)
2015,06,09,00,00,19.10
2015,06,09,00,01,19.00
2015,06,09,00,02,18.90
2015,06,09,00,03,18.90
2015,06,09,00,04,18.80
2015,06,09,00,05,18.80
2015,06,09,00,06,18.70
2015,06,09,00,07,18.70
2015,06,09,00,08,18.60
2015,06,09,00,09,18.50
2015,06,09,00,10,18.50
2015,06,09,00,11,18.40
2015,06,09,00,12,18.40
2015,06,09,00,13,18.40
2015,06,09,00,14,18.40
2015,06,09,00,15,18.30
2015,06,09,00,16,18.20
2015,06,09,00,17,18.20
2015,06,09,00,18,18.10
2015,06,09,00,19,18.00
2015,06,09,00,20,17.90
2015,06,09,00,21,17.80
2015,06,09,00,22,17.80
2015,06,09,00,23,17.80
2015,06,09,00,24,17.80
2015,06,09,00,25,17.80
2015,06,09,00,26,17.80
2015,06,09,00,27,17.80
2015,06,09,00,28,17.90
2015,06,09,00,29,17.90
2015,06,09,00,30,18.00
2015,06,09,00,31,18.00
2015,06,09,00,32,18.10
2015,06,09,00,33,18.10
2015,06,09,00,34,18.20
2015,06,09,00,35,18.20
2015,06,09,00,36,18.20
2015,06,09,00,37,18.20
2015,06,09,00,38,18.20
2015,06,09,00,39,18.20
2015,06,09,00,40,18.10
2015,06,09,00,41,18.10
2015,06,09,00,42,18.10
2015,06,09,00,43,18.10
2015,06,09,00,44,18.00
2015,06,09,00,45,18.10
2015,06,09,00,46,18.10
2015,06,09,00,47,18.20
2015,06,09,00,48,18.30
2015,06,09,00,49,18.40
2015,06,09,00,50,18.50
2015,06,09,00,51,18.60
2015,06,09,00,52,18.70
2015,06,09,00,53,18.80
2015,06,09,00,54,18.80
2015,06,09,00,55,18.90
2015,06,09,00,56,19.00
2015,06,09,00,57,19.00
2015,06,09,00,58,19.10
2015,06,09,00,59,19.10
2015,06,09,01,00,19.00
2015,06,09,01,01,19.00
2015,06,09,01,02,19.00
2015,06,09,01,03,19.00
2015,06,09,01,04,19.00
2015,06,09,01,05,19.00
2015,06,09,01,06,18.90
2015,06,09,01,07,18.90
2015,06,09,01,08,18.90
2015,06,09,01,09,18.90
2015,06,09,01,10,18.90
2015,06,09,01,11,18.90
2015,06,09,01,12,18.90
2015,06,09,01,13,18.90
2015,06,09,01,14,18.90
2015,06,09,01,15,18.90
2015,06,09,01,16,18.90
2015,06,09,01,17,18.90
2015,06,09,01,18,18.90
2015,06,09,01,19,18.90
2015,06,09,01,20,18.90
2015,06,09,01,21,18.90
2015,06,09,01,22,18.90
2015,06,09,01,23,18.90
2015,06,09,01,24,18.90
2015,06,09,01,25,18.90
2015,06,09,01,26,18.90
2015,06,09,01,27,18.90
2015,06,09,01,28,18.90
2015,06,09,01,29,18.90
2015,06,09,01,30,18.90
2015,06,09,01,31,18.80
2015,06,09,01,32,18.80
2015,06,09,01,33,18.80
2015,06,09,01,34,18.80
2015,06,09,01,35,18.80
2015,06,09,01,36,18.80
2015,06,09,01,37,18.80
2015,06,09,01,38,18.80
2015,06,09,01,39,18.80
2015,06,09,01,40,18.80
2015,06,09,01,41,18.80
2015,06,09,01,42,18.80
2015,06,09,01,43,18.80
2015,06,09,01,44,18.80
2015,06,09,01,45,18.80
2015,06,09,01,46,18.80
2015,06,09,01,47,18.80
2015,06,09,01,48,18.90
2015,06,09,01,49,18.90
2015,06,09,01,50,18.90
2015,06,09,01,51,18.80
2015,06,09,01,52,18.80
2015,06,09,01,53,18.80
2015,06,09,01,54,18.80
2015,06,09,01,55,18.80
2015,06,09,01,56,18.80
2015,06,09,01,57,18.80
2015,06,09,01,58,18.80
2015,06,09,01,59,18.80
2015,06,09,02,00,18.80
2015,06,09,02,01,18.80
2015,06,09,02,02,18.80
2015,06,09,02,03,18.80
2015,06,09,02,04,18.80
2015,06,09,02,05,18.70
2015,06,09,02,06,18.70
2015,06,09,02,07,18.70
2015,06,09,02,08,18.70
2015,06,09,02,09,18.60
2015,06,09,02,10,18.60
2015,06,09,02,11,18.60
2015,06,09,02,12,18.60
2015,06,09,02,13,18.60
2015,06,09,02,14,18.60
2015,06,09,02,15,18.60
2015,06,09,02,16,18.50
2015,06,09,02,17,18.50
2015,06,09,02,18,18.50
2015,06,09,02,19,18.50
2015,06,09,02,20,18.50
2015,06,09,02,21,18.50
2015,06,09,02,22,18.60
2015,06,09,02,23,18.60
2015,06,09,02,24,18.60
2015,06,09,02,25,18.60
2015,06,09,02,26,18.60
2015,06,09,02,27,18.60
2015,06,09,02,28,18.70
2015,06,09,02,29,18.70
2015,06,09,02,30,18.70
2015,06,09,02,31,18.80
2015,06,09,02,32,18.80
2015,06,09,02,33,18.80
2015,06,09,02,34,18.70
2015,06,09,02,35,18.70
2015,06,09,02,36,18.70
2015,06,09,02,37,18.70
2015,06,09,02,38,18.70
2015,06,09,02,39,18.70
2015,06,09,02,40,18.70
2015,06,09,02,41,18.70
2015,06,09,02,42,18.70
2015,06,09,02,43,18.70
2015,06,09,02,44,18.80
2015,06,09,02,45,18.80
2015,06,09,02,46,18.90
2015,06,09,02,47,19.00
2015,06,09,02,48,19.10
2015,06,09,02,49,19.10
2015,06,09,02,50,19.10
2015,06,09,02,51,19.20
2015,06,09,02,52,19.20
2015,06,09,02,53,19.10
2015,06,09,02,54,19.10
2015,06,09,02,55,19.00
2015,06,09,02,56,18.90
2015,06,09,02,57,18.80
2015,06,09,02,58,18.70
2015,06,09,02,59,18.60
2015,06,09,03,00,18.50
2015,06,09,03,01,18.30
2015,06,09,03,02,18.20
2015,06,09,03,03,18.10
2015,06,09,03,04,18.00
2015,06,09,03,05,17.80
2015,06,09,03,06,17.70
2015,06,09,03,07,17.60
2015,06,09,03,08,17.60
2015,06,09,03,09,17.50
2015,06,09,03,10,17.50
2015,06,09,03,11,17.50
2015,06,09,03,12,17.50
2015,06,09,03,13,17.50
2015,06,09,03,14,17.50
2015,06,09,03,15,17.60
2015,06,09,03,16,17.60
2015,06,09,03,17,17.60
2015,06,09,03,18,17.60
2015,06,09,03,19,17.60
2015,06,09,03,20,17.60
2015,06,09,03,21,17.60
2015,06,09,03,22,17.50
2015,06,09,03,23,17.40
2015,06,09,03,24,17.40
2015,06,09,03,25,17.30
2015,06,09,03,26,17.20
2015,06,09,03,27,17.10
2015,06,09,03,28,17.00
2015,06,09,03,29,16.90
2015,06,09,03,30,16.90
2015,06,09,03,31,16.80
2015,06,09,03,32,16.70
2015,06,09,03,33,16.60
2015,06,09,03,34,16.60
2015,06,09,03,35,16.50
2015,06,09,03,36,16.40
2015,06,09,03,37,16.30
2015,06,09,03,38,16.30
2015,06,09,03,39,16.20
2015,06,09,03,40,16.20
2015,06,09,03,41,16.10
2015,06,09,03,42,16.00
2015,06,09,03,43,16.00
2015,06,09,03,44,16.00
2015,06,09,03,45,16.00
2015,06,09,03,46,15.90
2015,06,09,03,47,15.90
2015,06,09,03,48,15.80
2015,06,09,03,49,15.80
2015,06,09,03,50,15.90
2015,06,09,03,51,15.90
2015,06,09,03,52,16.00
2015,06,09,03,53,15.90
2015,06,09,03,54,15.90
2015,06,09,03,55,15.80
2015,06,09,03,56,15.70
2015,06,09,03,57,15.60
2015,06,09,03,58,15.60
2015,06,09,03,59,15.70
2015,06,09,04,00,15.80
2015,06,09,04,01,15.80
2015,06,09,04,02,15.80
2015,06,09,04,03,15.80
2015,06,09,04,04,15.70
2015,06,09,04,05,15.80
2015,06,09,04,06,15.90
2015,06,09,04,07,16.10
2015,06,09,04,08,16.20
2015,06,09,04,09,16.30
2015,06,09,04,10,16.30
2015,06,09,04,11,16.30
2015,06,09,04,12,16.30
2015,06,09,04,13,16.20
2015,06,09,04,14,16.10
2015,06,09,04,15,16.00
2015,06,09,04,16,16.00
2015,06,09,04,17,16.00
2015,06,09,04,18,15.90
2015,06,09,04,19,15.90
2015,06,09,04,20,15.90
2015,06,09,04,21,16.00
2015,06,09,04,22,16.10
2015,06,09,04,23,16.20
2015,06,09,04,24,16.10
2015,06,09,04,25,16.00
2015,06,09,04,26,15.90
2015,06,09,04,27,15.80
2015,06,09,04,28,15.80
2015,06,09,04,29,15.80
2015,06,09,04,30,15.90
2015,06,09,04,31,16.00
2015,06,09,04,32,16.00
2015,06,09,04,33,16.00
2015,06,09,04,34,15.90
2015,06,09,04,35,15.80
2015,06,09,04,36,15.70
2015,06,09,04,37,15.60
2015,06,09,04,38,15.50
2015,06,09,04,39,15.40
2015,06,09,04,40,15.40
2015,06,09,04,41,15.30
2015,06,09,04,42,15.30
2015,06,09,04,43,15.30
2015,06,09,04,44,15.30
2015,06,09,04,45,15.20
2015,06,09,04,46,15.20
2015,06,09,04,47,15.20
2015,06,09,04,48,15.20
2015,06,09,04,49,15.10
2015,06,09,04,50,15.10
2015,06,09,04,51,15.10
2015,06,09,04,52,15.10
2015,06,09,04,53,15.10
2015,06,09,04,54,15.00
2015,06,09,04,55,15.00
2015,06,09,04,56,15.00
2015,06,09,04,57,14.80
2015,06,09,04,58,14.70
2015,06,09,04,59,14.60
2015,06,09,05,00,14.60
2015,06,09,05,01,14.50
2015,06,09,05,02,14.40
2015,06,09,05,03,14.40
2015,06,09,05,04,14.30
2015,06,09,05,05,14.30
2015,06,09,05,06,14.30
2015,06,09,05,07,14.20
2015,06,09,05,08,14.20
2015,06,09,05,09,14.20
2015,06,09,05,10,14.20
2015,06,09,05,11,14.20
2015,06,09,05,12,14.20
2015,06,09,05,13,14.20
2015,06,09,05,14,14.20
2015,06,09,05,15,14.20
2015,06,09,05,16,14.20
2015,06,09,05,17,14.30
2015,06,09,05,18,14.30
2015,06,09,05,19,14.30
2015,06,09,05,20,14.30
2015,06,09,05,21,14.30
2015,06,09,05,22,14.30
2015,06,09,05,23,14.30
2015,06,09,05,24,14.30
2015,06,09,05,25,14.30
2015,06,09,05,26,14.30
2015,06,09,05,27,14.40
2015,06,09,05,28,14.40
2015,06,09,05,29,14.40
2015,06,09,05,30,14.40
2015,06,09,05,31,14.50
2015,06,09,05,32,14.50
2015,06,09,05,33,14.60
2015,06,09,05,34,14.60
2015,06,09,05,35,14.60
2015,06,09,05,36,14.60
2015,06,09,05,37,14.50
2015,06,09,05,38,14.50
2015,06,09,05,39,14.50
2015,06,09,05,40,14.50
2015,06,09,05,41,14.50
2015,06,09,05,42,14.50
2015,06,09,05,43,14.50
2015,06,09,05,44,14.50
2015,06,09,05,45,14.50
2015,06,09,05,46,14.60
2015,06,09,05,47,14.60
2015,06,09,05,48,14.60
2015,06,09,05,49,14.60
2015,06,09,05,50,14.60
2015,06,09,05,51,14.50
2015,06,09,05,52,14.50
2015,06,09,05,53,14.50
2015,06,09,05,54,14.50
2015,06,09,05,55,14.40
2015,06,09,05,56,14.40
2015,06,09,05,57,14.30
2015,06,09,05,58,14.30
2015,06,09,05,59,14.30
2015,06,09,06,00,14.30
2015,06,09,06,01,14.30
2015,06,09,06,02,14.30
2015,06,09,06,03,14.30
2015,06,09,06,04,14.30
2015,06,09,06,05,14.30
2015,06,09,06,06,14.30
2015,06,09,06,07,14.30
2015,06,09,06,08,14.40
2015,06,09,06,09,14.40
2015,06,09,06,10,14.50
2015,06,09,06,11,14.60
2015,06,09,06,12,14.60
2015,06,09,06,13,14.70
2015,06,09,06,14,14.70
2015,06,09,06,15,14.80
2015,06,09,06,16,14.90
2015,06,09,06,17,15.00
2015,06,09,06,18,15.00
2015,06,09,06,19,15.00
2015,06,09,06,20,15.00
2015,06,09,06,21,15.10
2015,06,09,06,22,15.30
2015,06,09,06,23,15.30
2015,06,09,06,24,15.40
2015,06,09,06,25,15.40
2015,06,09,06,26,15.50
2015,06,09,06,27,15.50
2015,06,09,06,28,15.60
2015,06,09,06,29,15.60
2015,06,09,06,30,15.70
2015,06,09,06,31,15.70
2015,06,09,06,32,15.70
2015,06,09,06,33,15.80
2015,06,09,06,34,15.80
2015,06,09,06,35,15.90
2015,06,09,06,36,16.00
2015,06,09,06,37,16.10
2015,06,09,06,38,16.20
2015,06,09,06,39,16.20
2015,06,09,06,40,16.40
2015,06,09,06,41,16.50
2015,06,09,06,42,16.60
2015,06,09,06,43,16.70
2015,06,09,06,44,16.80
2015,06,09,06,45,16.80
2015,06,09,06,46,16.80
2015,06,09,06,47,16.90
2015,06,09,06,48,16.90
2015,06,09,06,49,16.90
2015,06,09,06,50,17.00
2015,06,09,06,51,17.00
2015,06,09,06,52,17.10
2015,06,09,06,53,17.20
2015,06,09,06,54,17.20
2015,06,09,06,55,17.30
2015,06,09,06,56,17.30
2015,06,09,06,57,17.30
2015,06,09,06,58,17.40
2015,06,09,06,59,17.40
2015,06,09,07,00,17.50
2015,06,09,07,01,17.50
2015,06,09,07,02,17.60
2015,06,09,07,03,17.60
2015,06,09,07,04,17.60
2015,06,09,07,05,17.60
2015,06,09,07,06,17.70
2015,06,09,07,07,17.70
2015,06,09,07,08,17.70
2015,06,09,07,09,17.70
2015,06,09,07,10,17.70
2015,06,09,07,11,17.70
2015,06,09,07,12,17.70
2015,06,09,07,13,17.70
2015,06,09,07,14,17.70
2015,06,09,07,15,17.70
2015,06,09,07,16,17.80
2015,06,09,07,17,17.80
2015,06,09,07,18,17.90
2015,06,09,07,19,17.90
2015,06,09,07,20,17.90
2015,06,09,07,21,17.90
2015,06,09,07,22,17.90
2015,06,09,07,23,18.00
2015,06,09,07,24,18.00
2015,06,09,07,25,18.00
2015,06,09,07,26,18.00
2015,06,09,07,27,18.00
2015,06,09,07,28,18.00
2015,06,09,07,29,18.00
2015,06,09,07,30,17.90
2015,06,09,07,31,17.90
2015,06,09,07,32,17.90
2015,06,09,07,33,17.90
2015,06,09,07,34,17.90
2015,06,09,07,35,17.90
2015,06,09,07,36,17.90
2015,06,09,07,37,17.90
2015,06,09,07,38,17.90
2015,06,09,07,39,17.90
2015,06,09,07,40,17.90
2015,06,09,07,41,18.00
2015,06,09,07,42,18.00
2015,06,09,07,43,18.10
2015,06,09,07,44,18.20
2015,06,09,07,45,18.30
2015,06,09,07,46,18.30
2015,06,09,07,47,18.30
2015,06,09,07,48,18.30
2015,06,09,07,49,18.30
2015,06,09,07,50,18.30
2015,06,09,07,51,18.40
2015,06,09,07,52,18.40
2015,06,09,07,53,18.40
2015,06,09,07,54,18.40
2015,06,09,07,55,18.50
2015,06,09,07,56,18.50
2015,06,09,07,57,18.50
2015,06,09,07,58,18.50
2015,06,09,07,59,18.40
2015,06,09,08,00,18.40
2015,06,09,08,01,18.30
2015,06,09,08,02,18.20
2015,06,09,08,03,18.20
2015,06,09,08,04,18.20
2015,06,09,08,05,18.30
2015,06,09,08,06,18.30
2015,06,09,08,07,18.30
2015,06,09,08,08,18.20
2015,06,09,08,09,18.20
2015,06,09,08,10,18.20
2015,06,09,08,11,18.30
2015,06,09,08,12,18.30
2015,06,09,08,13,18.40
2015,06,09,08,14,18.40
2015,06,09,08,15,18.50
2015,06,09,08,16,18.60
2015,06,09,08,17,18.70
2015,06,09,08,18,18.80
2015,06,09,08,19,18.80
2015,06,09,08,20,18.90
2015,06,09,08,21,18.90
2015,06,09,08,22,18.90
2015,06,09,08,23,18.90
2015,06,09,08,24,18.90
2015,06,09,08,25,18.90
2015,06,09,08,26,18.90
2015,06,09,08,27,18.90
2015,06,09,08,28,18.90
2015,06,09,08,29,19.00
2015,06,09,08,30,19.00
2015,06,09,08,31,19.00
2015,06,09,08,32,19.10
2015,06,09,08,33,19.10
2015,06,09,08,34,19.20
2015,06,09,08,35,19.20
2015,06,09,08,36,19.30
2015,06,09,08,37,19.30
2015,06,09,08,38,19.30
2015,06,09,08,39,19.30
2015,06,09,08,40,19.30
2015,06,09,08,41,19.40
2015,06,09,08,42,19.40
2015,06,09,08,43,19.40
2015,06,09,08,44,19.50
2015,06,09,08,45,19.60
2015,06,09,08,46,19.70
2015,06,09,08,47,19.80
2015,06,09,08,48,19.80
2015,06,09,08,49,19.90
2015,06,09,08,50,20.00
2015,06,09,08,51,20.00
2015,06,09,08,52,20.00
2015,06,09,08,53,20.00
2015,06,09,08,54,19.90
2015,06,09,08,55,19.80
2015,06,09,08,56,19.60
2015,06,09,08,57,19.50
2015,06,09,08,58,19.40
2015,06,09,08,59,19.40
2015,06,09,09,00,19.30
2015,06,09,09,01,19.40
2015,06,09,09,02,19.40
2015,06,09,09,03,19.50
2015,06,09,09,04,19.60
2015,06,09,09,05,19.70
2015,06,09,09,06,19.80
2015,06,09,09,07,19.90
2015,06,09,09,08,20.00
2015,06,09,09,09,20.00
2015,06,09,09,10,20.10
2015,06,09,09,11,20.10
2015,06,09,09,12,20.10
2015,06,09,09,13,20.20
2015,06,09,09,14,20.30
2015,06,09,09,15,20.40
2015,06,09,09,16,20.50
2015,06,09,09,17,20.60
2015,06,09,09,18,20.60
2015,06,09,09,19,20.60
2015,06,09,09,20,20.70
2015,06,09,09,21,20.70
2015,06,09,09,22,20.70
2015,06,09,09,23,20.70
2015,06,09,09,24,20.60
2015,06,09,09,25,20.50
2015,06,09,09,26,20.30
2015,06,09,09,27,20.10
2015,06,09,09,28,20.00
2015,06,09,09,29,20.00
2015,06,09,09,30,19.90
2015,06,09,09,31,20.00
2015,06,09,09,32,20.00
2015,06,09,09,33,20.00
2015,06,09,09,34,20.00
2015,06,09,09,35,20.00
2015,06,09,09,36,20.10
2015,06,09,09,37,20.20
2015,06,09,09,38,20.30
2015,06,09,09,39,20.30
2015,06,09,09,40,20.30
2015,06,09,09,41,20.30
2015,06,09,09,42,20.30
2015,06,09,09,43,20.40
2015,06,09,09,44,20.40
2015,06,09,09,45,20.40
2015,06,09,09,46,20.50
2015,06,09,09,47,20.50
2015,06,09,09,48,20.60
2015,06,09,09,49,20.60
2015,06,09,09,50,20.60
2015,06,09,09,51,20.60
2015,06,09,09,52,20.60
2015,06,09,09,53,20.50
2015,06,09,09,54,20.40
2015,06,09,09,55,20.40
2015,06,09,09,56,20.40
2015,06,09,09,57,20.40
2015,06,09,09,58,20.30
2015,06,09,09,59,20.30
2015,06,09,10,00,20.30
2015,06,09,10,01,20.30
2015,06,09,10,02,20.40
2015,06,09,10,03,20.40
2015,06,09,10,04,20.50
2015,06,09,10,05,20.60
2015,06,09,10,06,20.60
2015,06,09,10,07,20.70
2015,06,09,10,08,20.80
2015,06,09,10,09,20.80
2015,06,09,10,10,20.80
2015,06,09,10,11,20.90
2015,06,09,10,12,20.90
2015,06,09,10,13,20.90
2015,06,09,10,14,20.90
2015,06,09,10,15,20.90
2015,06,09,10,16,20.90
2015,06,09,10,17,20.90
2015,06,09,10,18,20.90
2015,06,09,10,19,21.00
2015,06,09,10,20,21.00
2015,06,09,10,21,21.10
2015,06,09,10,22,21.20
2015,06,09,10,23,21.30
2015,06,09,10,24,21.30
2015,06,09,10,25,21.40
2015,06,09,10,26,21.40
2015,06,09,10,27,21.40
2015,06,09,10,28,21.40
2015,06,09,10,29,21.40
2015,06,09,10,30,21.40
2015,06,09,10,31,21.20
2015,06,09,10,32,21.10
2015,06,09,10,33,21.10
2015,06,09,10,34,21.10
2015,06,09,10,35,21.00
2015,06,09,10,36,21.00
2015,06,09,10,37,21.00
2015,06,09,10,38,21.00
2015,06,09,10,39,21.00
2015,06,09,10,40,21.10
2015,06,09,10,41,21.10
2015,06,09,10,42,21.10
2015,06,09,10,43,21.10
2015,06,09,10,44,21.10
2015,06,09,10,45,21.20
2015,06,09,10,46,21.20
2015,06,09,10,47,21.10
2015,06,09,10,48,21.20
2015,06,09,10,49,21.20
2015,06,09,10,50,21.20
2015,06,09,10,51,21.20
2015,06,09,10,52,21.20
2015,06,09,10,53,21.20
2015,06,09,10,54,21.20
2015,06,09,10,55,21.20
2015,06,09,10,56,21.20
2015,06,09,10,57,21.20
2015,06,09,10,58,21.20
2015,06,09,10,59,21.20
2015,06,09,11,00,21.30
2015,06,09,11,01,21.40
2015,06,09,11,02,21.60
2015,06,09,11,03,21.70
2015,06,09,11,04,21.80
2015,06,09,11,05,21.90
2015,06,09,11,06,22.00
2015,06,09,11,07,22.10
2015,06,09,11,08,22.10
2015,06,09,11,09,22.10
2015,06,09,11,10,22.10
2015,06,09,11,11,22.10
2015,06,09,11,12,22.20
2015,06,09,11,13,22.10
2015,06,09,11,14,22.00
2015,06,09,11,15,22.00
2015,06,09,11,16,22.00
2015,06,09,11,17,22.10
2015,06,09,11,18,22.10
2015,06,09,11,19,22.10
2015,06,09,11,20,22.10
2015,06,09,11,21,22.00
2015,06,09,11,22,21.90
2015,06,09,11,23,21.90
2015,06,09,11,24,22.00
2015,06,09,11,25,21.90
2015,06,09,11,26,21.90
2015,06,09,11,27,21.90
2015,06,09,11,28,22.00
2015,06,09,11,29,22.00
2015,06,09,11,30,21.90
2015,06,09,11,31,21.90
2015,06,09,11,32,21.90
2015,06,09,11,33,22.00
2015,06,09,11,34,22.20
2015,06,09,11,35,22.20
2015,06,09,11,36,22.10
2015,06,09,11,37,22.00
2015,06,09,11,38,21.90
2015,06,09,11,39,21.80
2015,06,09,11,40,21.70
2015,06,09,11,41,21.50
2015,06,09,11,42,21.50
2015,06,09,11,43,21.50
2015,06,09,11,44,21.50
2015,06,09,11,45,21.60
2015,06,09,11,46,21.80
2015,06,09,11,47,21.80
2015,06,09,11,48,22.00
2015,06,09,11,49,22.10
2015,06,09,11,50,22.10
2015,06,09,11,51,22.00
2015,06,09,11,52,22.00
2015,06,09,11,53,22.20
2015,06,09,11,54,22.10
2015,06,09,11,55,22.00
2015,06,09,11,56,21.90
2015,06,09,11,57,21.80
2015,06,09,11,58,21.80
2015,06,09,11,59,21.80
2015,06,09,12,00,21.90
2015,06,09,12,01,22.00
2015,06,09,12,02,21.90
2015,06,09,12,03,21.90
2015,06,09,12,04,21.80
2015,06,09,12,05,21.90
2015,06,09,12,06,21.90
2015,06,09,12,07,22.00
2015,06,09,12,08,21.90
2015,06,09,12,09,21.90
2015,06,09,12,10,21.80
2015,06,09,12,11,21.80
2015,06,09,12,12,21.80
2015,06,09,12,13,21.80
2015,06,09,12,14,21.90
2015,06,09,12,15,21.90
2015,06,09,12,16,21.80
2015,06,09,12,17,21.80
2015,06,09,12,18,21.90
2015,06,09,12,19,22.00
2015,06,09,12,20,22.00
2015,06,09,12,21,22.00
2015,06,09,12,22,22.00
2015,06,09,12,23,21.90
2015,06,09,12,24,21.90
2015,06,09,12,25,22.00
2015,06,09,12,26,22.00
2015,06,09,12,27,22.00
2015,06,09,12,28,22.10
2015,06,09,12,29,22.10
2015,06,09,12,30,22.00
2015,06,09,12,31,21.90
2015,06,09,12,32,21.80
2015,06,09,12,33,21.80
2015,06,09,12,34,21.80
2015,06,09,12,35,21.90
2015,06,09,12,36,22.00
2015,06,09,12,37,22.00
2015,06,09,12,38,22.00
2015,06,09,12,39,22.10
2015,06,09,12,40,22.20
2015,06,09,12,41,22.30
2015,06,09,12,42,22.20
2015,06,09,12,43,22.10
2015,06,09,12,44,22.20
2015,06,09,12,45,22.20
2015,06,09,12,46,22.30
2015,06,09,12,47,22.20
2015,06,09,12,48,22.10
2015,06,09,12,49,22.20
2015,06,09,12,50,22.30
2015,06,09,12,51,22.50
2015,06,09,12,52,22.50
2015,06,09,12,53,22.50
2015,06,09,12,54,22.60
2015,06,09,12,55,22.70
2015,06,09,12,56,22.80
2015,06,09,12,57,22.80
2015,06,09,12,58,22.70
2015,06,09,12,59,22.50
2015,06,09,13,00,22.50
2015,06,09,13,01,22.50
2015,06,09,13,02,22.50
2015,06,09,13,03,22.40
2015,06,09,13,04,22.50
2015,06,09,13,05,22.60
2015,06,09,13,06,22.70
2015,06,09,13,07,22.90
2015,06,09,13,08,23.10
2015,06,09,13,09,23.20
2015,06,09,13,10,23.20
2015,06,09,13,11,23.30
2015,06,09,13,12,23.50
2015,06,09,13,13,23.60
2015,06,09,13,14,23.50
2015,06,09,13,15,23.30
2015,06,09,13,16,23.20
2015,06,09,13,17,23.20
2015,06,09,13,18,23.20
2015,06,09,13,19,23.10
2015,06,09,13,20,23.10
2015,06,09,13,21,23.10
2015,06,09,13,22,23.00
2015,06,09,13,23,23.00
2015,06,09,13,24,23.10
2015,06,09,13,25,23.20
2015,06,09,13,26,23.20
2015,06,09,13,27,23.30
2015,06,09,13,28,23.30
2015,06,09,13,29,23.30
2015,06,09,13,30,23.30
2015,06,09,13,31,23.20
2015,06,09,13,32,23.10
2015,06,09,13,33,23.10
2015,06,09,13,34,23.10
2015,06,09,13,35,23.20
2015,06,09,13,36,23.20
2015,06,09,13,37,23.20
2015,06,09,13,38,23.20
2015,06,09,13,39,23.10
2015,06,09,13,40,23.00
2015,06,09,13,41,22.90
2015,06,09,13,42,22.90
2015,06,09,13,43,22.90
2015,06,09,13,44,23.00
2015,06,09,13,45,23.10
2015,06,09,13,46,23.00
2015,06,09,13,47,22.90
2015,06,09,13,48,22.90
2015,06,09,13,49,22.90
2015,06,09,13,50,23.00
2015,06,09,13,51,23.10
2015,06,09,13,52,23.20
2015,06,09,13,53,23.20
2015,06,09,13,54,23.40
2015,06,09,13,55,23.40
2015,06,09,13,56,23.30
2015,06,09,13,57,23.20
2015,06,09,13,58,23.10
2015,06,09,13,59,23.00
2015,06,09,14,00,22.90
2015,06,09,14,01,23.00
2015,06,09,14,02,23.00
2015,06,09,14,03,23.10
2015,06,09,14,04,23.10
2015,06,09,14,05,23.20
2015,06,09,14,06,23.30
2015,06,09,14,07,23.40
2015,06,09,14,08,23.50
2015,06,09,14,09,23.60
2015,06,09,14,10,23.80
2015,06,09,14,11,23.90
2015,06,09,14,12,24.00
2015,06,09,14,13,24.20
2015,06,09,14,14,24.30
2015,06,09,14,15,24.30
2015,06,09,14,16,24.40
2015,06,09,14,17,24.50
2015,06,09,14,18,24.40
2015,06,09,14,19,24.20
2015,06,09,14,20,24.00
2015,06,09,14,21,23.80
2015,06,09,14,22,23.70
2015,06,09,14,23,23.70
2015,06,09,14,24,23.70
2015,06,09,14,25,23.70
2015,06,09,14,26,23.80
2015,06,09,14,27,23.70
2015,06,09,14,28,23.70
2015,06,09,14,29,23.70
2015,06,09,14,30,23.70
2015,06,09,14,31,23.80
2015,06,09,14,32,23.90
2015,06,09,14,33,23.90
2015,06,09,14,34,24.00
2015,06,09,14,35,24.10
2015,06,09,14,36,24.10
2015,06,09,14,37,24.10
2015,06,09,14,38,24.10
2015,06,09,14,39,24.10
2015,06,09,14,40,24.20
2015,06,09,14,41,24.20
2015,06,09,14,42,24.30
2015,06,09,14,43,24.50
2015,06,09,14,44,24.50
2015,06,09,14,45,24.50
2015,06,09,14,46,24.40
2015,06,09,14,47,24.20
2015,06,09,14,48,24.10
2015,06,09,14,49,23.90
2015,06,09,14,50,23.80
2015,06,09,14,51,23.70
2015,06,09,14,52,23.70
2015,06,09,14,53,23.60
2015,06,09,14,54,23.60
2015,06,09,14,55,23.60
2015,06,09,14,56,23.70
2015,06,09,14,57,23.90
2015,06,09,14,58,24.10
2015,06,09,14,59,24.30
2015,06,09,15,00,24.40
2015,06,09,15,01,24.60
2015,06,09,15,02,24.70
2015,06,09,15,03,24.60
2015,06,09,15,04,24.60
2015,06,09,15,05,24.60
2015,06,09,15,06,24.70
2015,06,09,15,07,24.60
2015,06,09,15,08,24.70
2015,06,09,15,09,24.70
2015,06,09,15,10,24.70
2015,06,09,15,11,24.70
2015,06,09,15,12,24.70
2015,06,09,15,13,24.80
2015,06,09,15,14,24.80
2015,06,09,15,15,24.80
2015,06,09,15,16,24.70
2015,06,09,15,17,24.70
2015,06,09,15,18,24.60
2015,06,09,15,19,24.50
2015,06,09,15,20,24.40
2015,06,09,15,21,24.20
2015,06,09,15,22,24.00
2015,06,09,15,23,23.70
2015,06,09,15,24,23.60
2015,06,09,15,25,23.50
2015,06,09,15,26,23.30
2015,06,09,15,27,23.20
2015,06,09,15,28,23.20
2015,06,09,15,29,23.10
2015,06,09,15,30,23.10
2015,06,09,15,31,23.10
2015,06,09,15,32,23.10
2015,06,09,15,33,23.20
2015,06,09,15,34,23.30
2015,06,09,15,35,23.40
2015,06,09,15,36,23.50
2015,06,09,15,37,23.60
2015,06,09,15,38,23.70
2015,06,09,15,39,23.70
2015,06,09,15,40,23.70
2015,06,09,15,41,23.60
2015,06,09,15,42,23.60
2015,06,09,15,43,23.60
2015,06,09,15,44,23.40
2015,06,09,15,45,23.40
2015,06,09,15,46,23.40
2015,06,09,15,47,23.40
2015,06,09,15,48,23.40
2015,06,09,15,49,23.50
2015,06,09,15,50,23.50
2015,06,09,15,51,23.60
2015,06,09,15,52,23.60
2015,06,09,15,53,23.60
2015,06,09,15,54,23.50
2015,06,09,15,55,23.50
2015,06,09,15,56,23.40
2015,06,09,15,57,23.50
2015,06,09,15,58,23.50
2015,06,09,15,59,23.50
2015,06,09,16,00,23.50
2015,06,09,16,01,23.50
2015,06,09,16,02,23.50
2015,06,09,16,03,23.50
2015,06,09,16,04,23.40
2015,06,09,16,05,23.40
2015,06,09,16,06,23.30
2015,06,09,16,07,23.30
2015,06,09,16,08,23.20
2015,06,09,16,09,23.10
2015,06,09,16,10,23.20
2015,06,09,16,11,23.20
2015,06,09,16,12,23.20
2015,06,09,16,13,23.40
2015,06,09,16,14,23.50
2015,06,09,16,15,23.60
2015,06,09,16,16,23.70
2015,06,09,16,17,23.50
2015,06,09,16,18,23.40
2015,06,09,16,19,23.30
2015,06,09,16,20,23.20
2015,06,09,16,21,23.20
2015,06,09,16,22,23.20
2015,06,09,16,23,23.20
2015,06,09,16,24,23.10
2015,06,09,16,25,23.10
2015,06,09,16,26,23.30
2015,06,09,16,27,23.50
2015,06,09,16,28,23.60
2015,06,09,16,29,23.60
2015,06,09,16,30,23.50
2015,06,09,16,31,23.40
2015,06,09,16,32,23.30
2015,06,09,16,33,23.40
2015,06,09,16,34,23.40
2015,06,09,16,35,23.40
2015,06,09,16,36,23.40
2015,06,09,16,37,23.40
2015,06,09,16,38,23.40
2015,06,09,16,39,23.40
2015,06,09,16,40,23.50
2015,06,09,16,41,23.60
2015,06,09,16,42,23.70
2015,06,09,16,43,23.90
2015,06,09,16,44,24.00
2015,06,09,16,45,24.00
2015,06,09,16,46,24.10
2015,06,09,16,47,24.10
2015,06,09,16,48,24.20
2015,06,09,16,49,24.10
2015,06,09,16,50,24.10
2015,06,09,16,51,24.20
2015,06,09,16,52,24.20
2015,06,09,16,53,24.20
2015,06,09,16,54,24.20
2015,06,09,16,55,24.20
2015,06,09,16,56,24.20
2015,06,09,16,57,24.10
2015,06,09,16,58,24.10
2015,06,09,16,59,24.00
2015,06,09,17,00,23.90
2015,06,09,17,01,23.80
2015,06,09,17,02,23.70
2015,06,09,17,03,23.70
2015,06,09,17,04,23.80
2015,06,09,17,05,23.80
2015,06,09,17,06,23.70
2015,06,09,17,07,23.70
2015,06,09,17,08,23.80
2015,06,09,17,09,23.70
2015,06,09,17,10,23.80
2015,06,09,17,11,23.90
2015,06,09,17,12,23.90
2015,06,09,17,13,24.00
2015,06,09,17,14,24.00
2015,06,09,17,15,24.10
2015,06,09,17,16,24.10
2015,06,09,17,17,24.10
2015,06,09,17,18,24.10
2015,06,09,17,19,24.10